Weather History for Ballenas Island, BC

Change the Weather History Date:

Monday, April 22, 2013

  Actual Average Record
Temperature  
Mean Temperature 48 °F -  
Max Temperature 54 °F - - ()
Min Temperature 43 °F - - ()
Degree Days  
Heating Degree Days 16    
Moisture  
Dew Point 38 °F    
Average Humidity 65    
Maximum Humidity 77    
Minimum Humidity 45    
Precipitation  
Precipitation 0.00 in - - ()
Sea Level Pressure  
Sea Level Pressure 30.47 in    
Wind  
Wind Speed 8 mph ()    
Max Wind Speed 13 mph    
Max Gust Speed -    
T = Trace of Precipitation, MM = Missing Value Source: Averaged Metar Reports

Daily Weather History Graph

Daily Weather History Graph

Search for Another Location

Airport:

Trip Planner

Search our weather history database for the weather conditions in past years. The results will help you decide how hot, cold, wet, or windy it might be!

Date:

Astronomy

Apr. 22, 2013 Rise Set
Actual Time 6:10 AM PDT 8:20 PM PDT
Civil Twilight 5:35 AM PDT 8:55 PM PDT
Nautical Twilight 4:52 AM PDT 9:38 PM PDT
Astronomical Twilight 4:04 AM PDT 10:28 PM PDT
Moon 5:00 PM PDT (4/22) 4:26 AM PDT (4/22)
Length of Visible Light 15h 19m
Length of Day
14h 10m
Waxing Gibbous, 88% of the Moon is Illuminated
Apr 22
Waxing Gibbous
Apr 25
Full
May 2
Last Quarter
May 9
New
May 17
First Quarter

Hourly Weather History & Observations

Time (PDT) Temp. Windchill Dew Point Humidity Pressure Visibility Wind Dir Wind Speed Gust Speed Precip Events Conditions
12:00 AM 45.3 °F 43.0 °F 37.0 °F 73% 30.39 in - SSW 4.6 mph - N/A   Unknown
1:00 AM 44.1 °F 41.5 °F 37.2 °F 77% 30.41 in - SW 4.6 mph - N/A   Unknown
2:00 AM 43.9 °F 38.8 °F 36.7 °F 76% 30.43 in - SW 9.2 mph - N/A   Unknown
3:00 AM 43.3 °F 37.7 °F 36.1 °F 76% 30.44 in - WSW 10.4 mph - N/A   Unknown
4:00 AM 44.4 °F 39.0 °F 35.8 °F 72% 30.46 in - WSW 10.4 mph - N/A   Unknown
5:00 AM 44 °F - 36 °F 66% 30.47 in - WSW 11.5 mph - -  
5:00 AM 44.1 °F 38.1 °F 36.3 °F 74% 30.47 in - WSW 11.5 mph - N/A   Unknown
6:00 AM 43.3 °F 37.2 °F 36.7 °F 77% 30.49 in - WSW 11.5 mph - N/A   Unknown
7:00 AM 43.9 °F 37.5 °F 36.1 °F 74% 30.50 in - WSW 12.7 mph - N/A   Unknown
8:00 AM 45.7 °F 40.6 °F 36.7 °F 71% 30.52 in - WSW 10.4 mph - N/A   Unknown
9:00 AM 46.8 °F - 37.9 °F 71% 30.53 in - West 12.7 mph - N/A   Unknown
10:00 AM 47.5 °F - 38.7 °F 71% 30.54 in - WNW 10.4 mph - N/A   Unknown
11:00 AM 47.7 °F - 38.7 °F 71% 30.54 in - West 11.5 mph - N/A   Unknown
12:00 PM 49.1 °F - 39.7 °F 70% 30.53 in - West 10.4 mph - N/A   Unknown
1:00 PM 49.8 °F - 39.2 °F 67% 30.52 in - West 10.4 mph - N/A   Unknown
2:00 PM 51.1 °F - 37.9 °F 61% 30.51 in - WNW 12.7 mph - N/A   Unknown
3:00 PM 52.7 °F - 37.4 °F 56% 30.49 in - WNW 11.5 mph - N/A   Unknown
4:00 PM 53.1 °F - 37.9 °F 57% 30.48 in - West 11.5 mph - N/A   Unknown
5:00 PM 54 °F - 39 °F 45% 30.46 in - West 10.4 mph - -  
5:00 PM 53.6 °F - 38.7 °F 57% 30.46 in - West 10.4 mph - N/A   Unknown
6:00 PM 54.0 °F - 36.3 °F 51% 30.44 in - West 12.7 mph - N/A   Unknown
7:00 PM 54.3 °F - 37.0 °F 52% 30.43 in - West 10.4 mph - N/A   Unknown
8:00 PM 53.1 °F - 40.3 °F 62% 30.42 in - NW 9.2 mph - N/A   Unknown
9:00 PM 52.5 °F - 40.8 °F 64% 30.41 in - WNW 6.9 mph - N/A   Unknown
10:00 PM 50.7 °F - 37.6 °F 61% 30.42 in - WSW 9.2 mph - N/A   Unknown
11:00 PM 50 °F - 37 °F 51% 30.42 in - WSW 8.1 mph - -  
11:00 PM 50.2 °F - 37.4 °F 62% 30.42 in - WSW 8.1 mph - N/A   Unknown